Location: Arbon
(43.0005°N, 0.7472°E)
Time: 22:46:18
(UTC+00:00)

Explorer 7 - Pass Details

Date: 02 December 2020
Orbit: 484 x 678 km, 50.3° (Epoch: 25 January)

Event Time Altitude Azimuth Distance (km) Brightness Sun altitude
Rises 22:11:44 0° 178° (S) 2,998 - -61.3°
Reaches altitude 10° 22:16:12 10° 139° (SE) 2,062 - -61.9°
Maximum altitude 22:17:08 11° 128° (SE) 2,019 - -62.0°
Drops below altitude 10° 22:18:05 10° 116° (ESE) 2,048 - -62.2°
Sets 22:22:25 0° 78° (ENE) 2,913 - -62.7°
